N9XTN-3 Weather Reports


time (UTC)temp
C
wind
direction
speed
KPH
gust
KPH
rain 1hr
cm
rain 24hr
cm
rain mn
cm
humidity
%
barometer
mb
20230208173517 6 180 9.7 17.7 0.00 0.00 0.00 73 1019.9
20230208173017 6 158 9.7 17.7 0.00 0.00 0.00 73 1019.9
20230208172517 5 158 9.7 16.1 0.00 0.00 0.00 74 1019.7
20230208172017 5 180 9.7 14.5 0.00 0.00 0.00 75 1019.7
20230208171517 5 158 9.7 16.1 0.00 0.00 0.00 76 1019.8
20230208171017 5 158 11.3 16.1 0.00 0.00 0.00 77 1020.1
20230208170517 4 180 9.7 16.1 0.00 0.00 0.00 78 1020.0
20230208170017 4 158 8.0 14.5 0.00 0.00 0.00 79 1020.0
20230208165517 4 158 8.0 12.9 0.00 0.00 0.00 80 1020.1
20230208165017 3 158 9.7 16.1 0.00 0.00 0.00 80 1020.1
20230208164517 3 180 8.0 12.9 0.00 0.00 0.00 81 1020.3
20230208164017 3 180 9.7 17.7 0.00 0.00 0.00 81 1020.3
20230208163517 3 158 11.3 17.7 0.00 0.00 0.00 82 1020.3
20230208163017 3 158 11.3 16.1 0.00 0.00 0.00 82 1020.4
20230208162537 2 158 11.3 17.7 0.00 0.00 0.00 83 1020.5
20230208162017 2 158 9.7 19.3 0.00 0.00 0.00 83 1020.6
20230208161517 2 158 12.9 17.7 0.00 0.00 0.00 84 1020.5
20230208161017 2 158 11.3 16.1 0.00 0.00 0.00 84 1020.5
20230208160517 2 158 12.9 19.3 0.00 0.00 0.00 85 1020.4
20230208160017 1 158 9.7 17.7 0.00 0.00 0.00 86 1020.3
20230208155517 1 158 8.0 17.7 0.00 0.00 0.00 86 1020.1
20230208155017 1 180 8.0 11.3 0.00 0.00 0.00 87 1020.1
20230208154517 1 158 8.0 11.3 0.00 0.00 0.00 87 1020.1
20230208154037 0 180 6.4 9.7 0.00 0.00 0.00 87 1019.9
20230208153517 0 180 6.4 11.3 0.00 0.00 0.00 88 1019.8
20230208153037 0 158 4.8 11.3 0.00 0.00 0.00 88 1019.9
20230208152557 0 158 4.8 9.7 0.00 0.00 0.00 89 1020.1
20230208152017 0 158 6.4 11.3 0.00 0.00 0.00 89 1020.2
20230208151517 0 158 4.8 11.3 0.00 0.00 0.00 90 1020.3
20230208151017 0 158 3.2 8.0 0.00 0.00 0.00 90 1020.3
20230208150517 0 158 6.4 9.7 0.00 0.00 0.00 90 1020.2
20230208150017 -1 158 4.8 8.0 0.00 0.00 0.00 91 1020.2
20230208145517 -1 180 4.8 8.0 0.00 0.00 0.00 91 1020.1
20230208145017 -1 180 3.2 6.4 0.00 0.00 0.00 91 1019.6
20230208144537 -1 180 1.6 8.0 0.00 0.00 0.00 92 1020.0
20230208144037 -1 158 3.2 6.4 0.00 0.00 0.00 92 1020.1
20230208143517 -2 158 1.6 6.4 0.00 0.00 0.00 92 1020.1
20230208143017 -2 158 3.2 8.0 0.00 0.00 0.00 92 1020.2
20230208142517 -2 0.0 3.2 0.00 0.00 0.00 93 1020.2
20230208142137 -2 158 1.6 6.4 0.00 0.00 0.00 92 1020.4
20230208141517 -2 158 3.2 6.4 0.00 0.00 0.00 92 1020.4
20230208141017 -2 158 3.2 6.4 0.00 0.00 0.00 92 1020.1
20230208140517 -2 158 1.6 6.4 0.00 0.00 0.00 92 1020.0
20230208140037 -2 0.0 3.2 0.00 0.00 0.00 92 1020.0
20230208135517 -2 0.0 0.0 0.00 0.00 0.00 92 1020.1
20230208135017 -2 0.0 0.0 0.00 0.00 0.00 92 1020.2
20230208134517 -2 0.0 0.0 0.00 0.00 0.00 91 1020.4
20230208134017 -2 0.0 0.0 0.00 0.00 0.00 91 1020.5
20230208133517 -2 0.0 0.0 0.00 0.00 0.00 91 1020.7
20230208133017 -2 0.0 0.0 0.00 0.00 0.00 91 1020.8
20230208132518 -2 0.0 3.2 0.00 0.00 0.00 91 1020.9
20230208132017 -2 158 1.6 3.2 0.00 0.00 0.00 91 1021.0
20230208131537 -2 0.0 1.6 0.00 0.00 0.00 90 1021.0
20230208131017 -2 0.0 3.2 0.00 0.00 0.00 90 1021.1
20230208130517 -2 0.0 3.2 0.00 0.00 0.00 90 1021.1
20230208130017 -2 158 1.6 6.4 0.00 0.00 0.00 90 1021.4
20230208125517 -2 158 1.6 3.2 0.00 0.00 0.00 90 1021.6
20230208125017 -2 158 4.8 9.7 0.00 0.00 0.00 90 1021.7
20230208124517 -2 158 6.4 9.7 0.00 0.00 0.00 90 1021.7
20230208124017 -2 158 6.4 9.7 0.00 0.00 0.00 90 1021.8
20230208123517 -2 158 4.8 11.3 0.00 0.00 0.00 90 1021.9
20230208123038 -2 158 6.4 11.3 0.00 0.00 0.00 90 1021.8
20230208122517 -1 180 9.7 17.7 0.00 0.00 0.00 91 1022.0
20230208122017 -2 158 9.7 19.3 0.00 0.00 0.00 91 1022.0
20230208121517 -2 158 8.0 11.3 0.00 0.00 0.00 91 1022.0
20230208121017 -1 158 6.4 11.3 0.00 0.00 0.00 90 1022.0
20230208120517 -1 158 6.4 12.9 0.00 0.00 0.00 90 1022.1
20230208120017 -1 158 8.0 14.5 0.00 0.00 0.00 90 1022.2
20230208115517 -1 158 9.7 17.7 0.00 0.00 0.00 90 1022.1
20230208115037 -1 158 11.3 20.9 0.00 0.00 0.00 91 1022.1
20230208114517 -1 158 9.7 14.5 0.00 0.00 0.00 91 1022.1
20230208114017 -2 158 9.7 12.9 0.00 0.00 0.00 90 1021.9
20230208113537 -2 158 9.7 12.9 0.00 0.00 0.00 90 1022.0
20230208113017 -2 158 9.7 14.5 0.00 0.00 0.00 91 1021.9
20230208112537 -2 158 8.0 14.5 0.00 0.00 0.00 90 1021.8
20230208112017 -2 158 8.0 11.3 0.00 0.00 0.00 90 1021.8
20230208111557 -2 158 9.7 12.9 0.00 0.00 0.00 90 1021.8
20230208111018 -2 135 8.0 11.3 0.00 0.00 0.00 90 1021.8
20230208110517 -2 135 8.0 11.3 0.00 0.00 0.00 90 1021.7
20230208110017 -2 158 8.0 11.3 0.00 0.00 0.00 90 1021.7
20230208105517 -2 158 8.0 11.3 0.00 0.00 0.00 90 1021.7
20230208105017 -2 158 8.0 9.7 0.00 0.00 0.00 90 1021.7
20230208104537 -2 158 8.0 11.3 0.00 0.00 0.00 89 1021.8
20230208104017 -2 158 6.4 9.7 0.00 0.00 0.00 89 1021.7
20230208103537 -2 158 6.4 8.0 0.00 0.00 0.00 89 1021.5
20230208103017 -2 158 6.4 9.7 0.00 0.00 0.00 89 1021.5
20230208102517 -2 158 8.0 11.3 0.00 0.00 0.00 89 1021.6
20230208102017 -2 158 8.0 11.3 0.00 0.00 0.00 89 1021.6
20230208101517 -1 158 6.4 8.0 0.00 0.00 0.00 89 1021.7
20230208101017 -1 158 6.4 8.0 0.00 0.00 0.00 89 1021.6
20230208100517 -1 158 8.0 9.7 0.00 0.00 0.00 90 1021.6
20230208100017 -2 158 6.4 9.7 0.00 0.00 0.00 90 1021.5
20230208095517 -2 158 4.8 8.0 0.00 0.00 0.00 89 1021.6
20230208095017 -2 158 4.8 8.0 0.00 0.00 0.00 89 1021.6
20230208094517 -2 158 3.2 6.4 0.00 0.00 0.00 89 1021.6
20230208094017 -2 158 1.6 6.4 0.00 0.00 0.00 88 1021.6
20230208093517 -2 0.0 3.2 0.00 0.00 0.00 88 1021.6
20230208093017 -2 0.0 0.0 0.00 0.00 0.00 87 1021.7
20230208092517 -2 0.0 0.0 0.00 0.00 0.00 87 1021.7
20230208092017 -2 158 1.6 3.2 0.00 0.00 0.00 87 1022.0
20230208091537 -2 158 1.6 3.2 0.00 0.00 0.00 86 1022.1
20230208091017 -1 158 1.6 6.4 0.00 0.00 0.00 86 1022.1
20230208090517 -1 0.0 0.0 0.00 0.00 0.00 86 1022.2
20230208090037 -1 0.0 0.0 0.00 0.00 0.00 86 1022.3
20230208085517 -1 0.0 0.0 0.00 0.00 0.00 86 1022.3
20230208085058 -1 0.0 1.6 0.00 0.00 0.00 86 1022.3
20230208084517 -1 158 3.2 6.4 0.00 0.00 0.00 86 1022.4
20230208084017 -1 158 3.2 6.4 0.00 0.00 0.00 86 1022.5
20230208083537 -1 158 4.8 8.0 0.00 0.00 0.00 86 1022.5
20230208083017 -1 158 4.8 8.0 0.00 0.00 0.00 86 1022.4
20230208082557 -1 158 4.8 8.0 0.00 0.00 0.00 86 1022.5
20230208082017 -1 158 8.0 12.9 0.00 0.00 0.00 86 1022.5
20230208081517 -1 158 4.8 8.0 0.00 0.00 0.00 85 1022.5
20230208081017 -1 158 1.6 3.2 0.00 0.00 0.00 85 1022.4
20230208080517 -1 158 3.2 8.0 0.00 0.00 0.00 86 1022.4
20230208080017 -1 158 6.4 9.7 0.00 0.00 0.00 86 1022.5
20230208075517 -1 158 6.4 9.7 0.00 0.00 0.00 87 1022.5
20230208075017 -1 158 4.8 8.0 0.00 0.00 0.00 87 1022.4
20230208074517 -1 158 6.4 9.7 0.00 0.00 0.00 88 1022.3
20230208074017 -2 158 6.4 8.0 0.00 0.00 0.00 88 1022.4
20230208073517 -2 158 3.2 6.4 0.00 0.00 0.00 87 1022.3
20230208073017 -2 0.0 6.4 0.00 0.00 0.00 87 1022.2
20230208072537 -1 0.0 0.0 0.00 0.00 0.00 86 1022.2
20230208072017 -1 0.0 0.0 0.00 0.00 0.00 86 1022.3
20230208071517 -1 0.0 0.0 0.00 0.00 0.00 86 1022.3
20230208071017 -1 0.0 0.0 0.00 0.00 0.00 86 1022.4
20230208070517 -1 0.0 0.0 0.00 0.00 0.00 86 1022.4
20230208070037 -1 158 1.6 6.4 0.00 0.00 0.00 86 1022.4
20230208065517 -1 158 3.2 6.4 0.00 0.00 0.00 86 1022.5
20230208065017 -1 158 1.6 6.4 0.00 0.00 0.00 85 1022.6
20230208064517 -1 0.0 1.6 0.00 0.00 0.00 85 1022.7
20230208064057 -1 0.0 1.6 0.00 0.00 0.00 84 1022.9
20230208063537 -1 158 1.6 3.2 0.00 0.00 0.00 84 1022.7
20230208063017 -1 0.0 0.0 0.00 0.00 0.00 83 1022.8
20230208062517 -1 0.0 0.0 0.00 0.00 0.00 82 1022.9
20230208062017 -1 0.0 0.0 0.00 0.00 0.00 82 1022.9
20230208061537 -1 0.0 0.0 0.00 0.00 0.00 81 1022.9
20230208061037 -1 0.0 0.0 0.00 0.00 0.00 81 1022.9
20230208060517 -1 0.0 0.0 0.00 0.00 0.00 81 1022.8
20230208060017 0 0.0 0.0 0.00 0.00 0.00 81 1022.9
20230208055517 0 0.0 0.0 0.00 0.00 0.00 80 1022.9
20230208055017 0 0.0 0.0 0.00 0.00 0.00 80 1022.9
20230208054537 0 0.0 1.6 0.00 0.00 0.00 79 1022.9
20230208054018 0 0.0 1.6 0.00 0.00 0.00 79 1023.0
20230208053517 0 0.0 0.0 0.00 0.00 0.00 77 1023.0
20230208053017 0 0.0 0.0 0.00 0.00 0.00 77 1023.0
20230208052557 0 158 1.6 3.2 0.00 0.00 0.00 76 1023.1
20230208052017 0 0.0 1.6 0.00 0.00 0.00 76 1023.1
20230208051517 0 0.0 3.2 0.00 0.00 0.00 76 1023.1
20230208051017 0 158 1.6 6.4 0.00 0.00 0.00 76 1023.1
20230208050517 0 158 3.2 8.0 0.00 0.00 0.00 75 1023.0
20230208050017 1 158 3.2 6.4 0.00 0.00 0.00 75 1023.0
20230208045517 1 158 3.2 8.0 0.00 0.00 0.00 75 1023.0
20230208045017 1 158 4.8 8.0 0.00 0.00 0.00 74 1023.0
20230208044537 1 158 4.8 6.4 0.00 0.00 0.00 74 1023.0
20230208044017 1 158 4.8 9.7 0.00 0.00 0.00 74 1023.0
20230208043517 1 158 6.4 9.7 0.00 0.00 0.00 74 1022.9
20230208043017 1 158 6.4 9.7 0.00 0.00 0.00 74 1022.9
20230208042517 1 158 4.8 9.7 0.00 0.00 0.00 73 1022.8
20230208042017 1 158 4.8 8.0 0.00 0.00 0.00 73 1022.8
20230208041517 1 158 4.8 8.0 0.00 0.00 0.00 73 1022.9
20230208041017 1 158 6.4 9.7 0.00 0.00 0.00 73 1022.8
20230208040517 1 158 4.8 9.7 0.00 0.00 0.00 73 1022.7
20230208040018 1 158 6.4 9.7 0.00 0.00 0.00 73 1022.7
20230208035517 1 158 4.8 8.0 0.00 0.00 0.00 72 1022.6
20230208035058 2 158 3.2 8.0 0.00 0.00 0.00 72 1022.7
20230208034517 2 158 4.8 9.7 0.00 0.00 0.00 72 1022.8
20230208034017 2 158 6.4 9.7 0.00 0.00 0.00 72 1022.7
20230208033518 1 158 4.8 9.7 0.00 0.00 0.00 73 1022.6
20230208033017 1 158 6.4 9.7 0.00 0.00 0.00 73 1022.7
20230208032517 1 158 3.2 6.4 0.00 0.00 0.00 72 1022.6
20230208032038 1 158 4.8 8.0 0.00 0.00 0.00 72 1022.6
20230208031517 1 158 4.8 8.0 0.00 0.00 0.00 72 1022.6
20230208031017 2 158 3.2 6.4 0.00 0.00 0.00 72 1022.6
20230208030518 2 158 3.2 6.4 0.00 0.00 0.00 71 1022.6
20230208030017 2 158 3.2 6.4 0.00 0.00 0.00 71 1022.6
20230208025522 2 158 1.6 3.2 0.00 0.00 0.00 70 1022.7
20230208025017 2 158 3.2 6.4 0.00 0.00 0.00 70 1022.7
20230208024517 2 158 3.2 6.4 0.00 0.00 0.00 69 1022.7
20230208024017 2 158 3.2 6.4 0.00 0.00 0.00 69 1022.6
20230208023517 2 158 3.2 6.4 0.00 0.00 0.00 69 1022.7
20230208023038 2 158 3.2 8.0 0.00 0.00 0.00 70 1022.6
20230208022522 2 158 4.8 6.4 0.00 0.00 0.00 70 1022.6
20230208022017 2 158 6.4 8.0 0.00 0.00 0.00 70 1022.6
20230208021517 2 158 6.4 9.7 0.00 0.00 0.00 70 1022.6
20230208021017 2 158 4.8 8.0 0.00 0.00 0.00 71 1022.5
20230208020517 2 158 6.4 8.0 0.00 0.00 0.00 71 1022.6
20230208020017 2 158 6.4 8.0 0.00 0.00 0.00 71 1022.5
20230208015618 2 158 6.4 8.0 0.00 0.00 0.00 72 1022.5
20230208015018 2 158 4.8 8.0 0.00 0.00 0.00 72 1022.6
20230208014518 2 158 3.2 6.4 0.00 0.00 0.00 72 1022.6
20230208014022 2 158 1.6 6.4 0.00 0.00 0.00 72 1022.6
20230208013517 2 158 1.6 3.2 0.00 0.00 0.00 72 1022.7
20230208013044 2 158 1.6 3.2 0.00 0.00 0.00 71 1022.8
20230208012524 2 158 3.2 6.4 0.00 0.00 0.00 70 1022.8
20230208012018 3 158 3.2 6.4 0.00 0.00 0.00 69 1022.9
20230208011537 3 158 1.6 6.4 0.00 0.00 0.00 69 1022.9
20230208011017 3 158 3.2 6.4 0.00 0.00 0.00 68 1022.9
20230208010538 3 158 3.2 6.4 0.00 0.00 0.00 68 1022.9
20230208010017 3 158 3.2 6.4 0.00 0.00 0.00 68 1023.0
20230208005517 3 180 4.8 8.0 0.00 0.00 0.00 67 1023.0
20230208005022 3 180 3.2 6.4 0.00 0.00 0.00 68 1022.9
20230208004517 3 180 1.6 3.2 0.00 0.00 0.00 69 1022.9
20230208004017 3 180 3.2 3.2 0.00 0.00 0.00 70 1023.0
20230208003517 3 180 3.2 6.4 0.00 0.00 0.00 71 1022.9
20230208003017 3 180 3.2 6.4 0.00 0.00 0.00 70 1023.0
20230208002517 3 180 1.6 4.8 0.00 0.00 0.00 69 1023.0
20230208002017 3 180 3.2 4.8 0.00 0.00 0.00 68 1023.0
20230208001517 3 180 1.6 4.8 0.00 0.00 0.00 68 1023.0
20230208001017 3 180 1.6 3.2 0.00 0.00 0.00 68 1023.0
20230208000517 4 180 1.6 3.2 0.00 0.00 0.00 66 1023.0
20230208000017 5 180 1.6 3.2 0.00 0.00 0.00 64 1023.1
20230207235517 5 180 1.6 3.2 0.00 0.00 0.00 63 1023.1
20230207235017 5 180 1.6 3.2 0.00 0.00 0.00 63 1023.1
20230207234517 5 180 1.6 4.8 0.00 0.00 0.00 63 1023.0
20230207234017 5 0.0 1.6 0.00 0.00 0.00 62 1023.0
20230207233517 6 180 1.6 3.2 0.00 0.00 0.00 61 1023.1
20230207233017 6 180 1.6 3.2 0.00 0.00 0.00 61 1023.2
20230207232517 6 180 1.6 3.2 0.00 0.00 0.00 61 1023.2
20230207232017 6 180 1.6 4.8 0.00 0.00 0.00 59 1023.1
20230207231537 6 180 1.6 3.2 0.00 0.00 0.00 59 1023.1
20230207231017 6 203 3.2 4.8 0.00 0.00 0.00 59 1023.0
20230207230517 6 203 1.6 4.8 0.00 0.00 0.00 58 1023.0
20230207230017 7 203 3.2 6.4 0.00 0.00 0.00 57 1023.1
20230207225517 7 203 1.6 4.8 0.00 0.00 0.00 57 1023.0
20230207225017 7 203 1.6 4.8 0.00 0.00 0.00 59 1023.0
20230207224537 7 203 1.6 4.8 0.00 0.00 0.00 58 1022.9
20230207224017 7 203 1.6 4.8 0.00 0.00 0.00 58 1022.9
20230207223517 7 203 1.6 4.8 0.00 0.00 0.00 59 1022.9
20230207223037 7 225 3.2 6.4 0.00 0.00 0.00 58 1022.8
20230207222517 7 248 3.2 4.8 0.00 0.00 0.00 58 1022.8
20230207222017 7 225 4.8 8.0 0.00 0.00 0.00 56 1022.7
20230207221517 7 225 4.8 6.4 0.00 0.00 0.00 56 1022.9
20230207221017 7 225 1.6 6.4 0.00 0.00 0.00 58 1023.0
20230207220517 7 225 3.2 6.4 0.00 0.00 0.00 56 1023.0
20230207220017 7 248 4.8 8.0 0.00 0.00 0.00 54 1022.9
20230207215517 7 248 6.4 9.7 0.00 0.00 0.00 55 1022.8
20230207214537 7 225 4.8 9.7 0.00 0.00 0.00 52 1022.6
20230207214037 7 248 4.8 9.7 0.00 0.00 0.00 53 1022.6
20230207213638 7 248 3.2 4.8 0.00 0.00 0.00 53 1022.5
20230207213018 7 248 4.8 8.0 0.00 0.00 0.00 51 1022.4
20230207212517 7 248 6.4 9.7 0.00 0.00 0.00 51 1022.5
20230207212017 7 248 4.8 9.7 0.00 0.00 0.00 53 1022.6
20230207211518 7 270 4.8 9.7 0.00 0.00 0.00 55 1022.4
20230207211017 7 248 4.8 9.7 0.00 0.00 0.00 52 1022.4
20230207210538 7 248 4.8 9.7 0.00 0.00 0.00 55 1022.4
20230207210017 7 225 4.8 9.7 0.00 0.00 0.00 54 1022.4
20230207205517 7 225 4.8 9.7 0.00 0.00 0.00 55 1022.3
20230207205017 6 225 4.8 8.0 0.00 0.00 0.00 57 1022.3
20230207204517 6 248 4.8 9.7 0.00 0.00 0.00 56 1022.4
20230207204017 6 225 4.8 9.7 0.00 0.00 0.00 54 1022.3
20230207203517 6 225 1.6 4.8 0.00 0.00 0.00 55 1022.3
20230207203037 6 338 3.2 8.0 0.00 0.00 0.00 55 1022.4
20230207202517 6 248 3.2 8.0 0.00 0.00 0.00 55 1022.3
20230207202018 6 225 3.2 6.4 0.00 0.00 0.00 57 1022.3
20230207201517 6 225 4.8 9.7 0.00 0.00 0.00 55 1022.4
20230207201017 6 270 4.8 9.7 0.00 0.00 0.00 57 1022.4
20230207200517 6 270 6.4 11.3 0.00 0.00 0.00 54 1022.4
20230207200017 6 270 3.2 8.0 0.00 0.00 0.00 59 1022.5
20230207195517 6 248 4.8 9.7 0.00 0.00 0.00 57 1022.6
20230207194517 6 248 4.8 9.7 0.00 0.00 0.00 59 1022.4
20230207194017 6 248 4.8 9.7 0.00 0.00 0.00 59 1022.5
20230207193518 6 248 3.2 9.7 0.00 0.00 0.00 56 1022.6
20230207193017 6 270 3.2 6.4 0.00 0.00 0.00 57 1022.6
20230207192518 6 293 3.2 11.3 0.00 0.00 0.00 57 1022.6
20230207192017 5 248 3.2 8.0 0.00 0.00 0.00 56 1022.6
20230207191537 5 270 4.8 9.7 0.00 0.00 0.00 58 1022.6
20230207191017 5 225 4.8 8.0 0.00 0.00 0.00 60 1022.6
20230207190538 5 225 3.2 6.4 0.00 0.00 0.00 60 1022.6
20230207190017 5 248 4.8 9.7 0.00 0.00 0.00 59 1022.6
20230207185517 5 248 4.8 9.7 0.00 0.00 0.00 60 1022.6
20230207185037 5 248 4.8 14.5 0.00 0.00 0.00 58 1022.7
20230207184518 5 293 3.2 8.0 0.00 0.00 0.00 59 1022.8
20230207184017 5 270 4.8 8.0 0.00 0.00 0.00 58 1022.8
20230207183518 5 248 4.8 8.0 0.00 0.00 0.00 60 1022.8
20230207183018 4 270 4.8 9.7 0.00 0.00 0.00 60 1022.8
20230207182517 4 270 4.8 9.7 0.00 0.00 0.00 59 1022.8
20230207182017 4 270 3.2 8.0 0.00 0.00 0.00 62 1023.0
20230207181517 4 293 3.2 11.3 0.00 0.00 0.00 63 1022.8
20230207181017 3 293 4.8 9.7 0.00 0.00 0.00 63 1022.8
20230207180517 3 248 3.2 8.0 0.00 0.00 0.00 64 1023.0
20230207180037 3 315 3.2 9.7 0.00 0.00 0.00 63 1023.1
20230207175517 3 315 6.4 11.3 0.00 0.00 0.00 63 1023.1
20230207175017 3 315 4.8 11.3 0.00 0.00 0.00 65 1023.1
20230207174538 3 293 4.8 12.9 0.00 0.00 0.00 65 1023.1
20230207174059 3 315 4.8 11.3 0.00 0.00 0.00 67 1023.1